Location: Geelbroek
(52.9503°N, 6.5712°E)
Time: 11:06:25
(UTC+00:00)

Cosmos 44 - Pass Details

Date: 15 May 2026
Orbit: 568 x 782 km, 65.1° (Epoch: 6 June)

Event Time Altitude Azimuth Distance (km) Brightness Sun altitude
Rises 22:31:26 0° 313° (NW) 3,278 7.8 -16.9°
Reaches altitude 10° 22:34:02 10° 305° (NW) 2,342 6.7 -17.0°
Maximum altitude 22:38:54 35° 242° (WSW) 1,221 4.4 -17.2°
Enters shadow 22:41:02 25° 199° (SSW) 1,488 4.5 -17.2°
